Buffalo, WY

4:44 AM MDT on May 24, 2017 (GMT -0600)
Johnson County

Weather History for KBYG - July, 2013

Change the Weather History Date:

Saturday, July 6, 2013

  Actual Average Record
Temperature  
Mean Temperature 71 °F 69 °F  
Max Temperature 82 °F 83 °F 100 °F (2007)
Min Temperature 59 °F 55 °F 44 °F (2010)
Degree Days  
Heating Degree Days 0 1  
Month to date heating degree days 0 9  
Since 1 June heating degree days 100 172  
Since 1 July heating degree days 0 9  
Cooling Degree Days 6 5  
Month to date cooling degree days 46 28  
Year to date cooling degree days 133 86  
Since 1 June cooling degree days 123 79  
Growing Degree Days 20 (Base 50)    
Moisture  
Dew Point 54 °F    
Average Humidity 60    
Maximum Humidity 78    
Minimum Humidity 42    
Precipitation  
Precipitation T in 0.06 in 0.07 in (2010)
Month to date precipitation T 0.32  
Year to date precipitation 4.08 8.12  
Sea Level Pressure  
Sea Level Pressure 29.83 in    
Wind  
Wind Speed 9 mph (NW)    
Max Wind Speed 21 mph    
Max Gust Speed 26 mph    
Visibility 10 miles    
Events      
T = Trace of Precipitation, MM = Missing Value Source: NWS Daily Summary

Daily Weather History Graph

Daily Weather History Graph

Search for Another Location

Airport or City:

Trip Planner

Search our weather history database for the weather conditions in past years. The results will help you decide how hot, cold, wet, or windy it might be!

Date:

Astronomy

Jul. 06, 2013 Rise Set
Actual Time 5:29 AM MDT 8:53 PM MDT
Civil Twilight 4:53 AM MDT 9:29 PM MDT
Nautical Twilight 4:06 AM MDT 10:16 PM MDT
Astronomical Twilight 3:06 AM MDT 11:15 PM MDT
Moon 4:20 AM MDT (7/6) 7:34 PM MDT (7/6)
Length of Visible Light 16h 35m
Length of Day
15h 23m
Waning Crescent, 2% of the Moon is Illuminated
Jul 6
Waning Crescent
Jul 8
New
Jul 15
First Quarter
Jul 22
Full
Jul 29
Last Quarter

Hourly Weather History & Observations

Time (MDT) Temp. Heat Index Dew Point Humidity Pressure Visibility Wind Dir Wind Speed Gust Speed Precip Events Conditions
12:53 AM 64.0 °F - 51.1 °F 63% 29.75 in 10.0 mi SSW 6.9 mph - N/A   Clear
1:53 AM 62.1 °F - 53.1 °F 72% 29.73 in 10.0 mi West 4.6 mph - N/A   Partly Cloudy
2:53 AM 61.0 °F - 53.1 °F 75% 29.72 in 10.0 mi WNW 5.8 mph - N/A   Mostly Cloudy
3:53 AM 60.1 °F - 52.0 °F 75% 29.73 in 10.0 mi NW 9.2 mph - N/A   Partly Cloudy
4:53 AM 59.0 °F - 50.0 °F 72% 29.75 in 10.0 mi West 5.8 mph - N/A   Clear
5:53 AM 59.0 °F - 48.9 °F 69% 29.80 in 10.0 mi West 5.8 mph - N/A   Clear
6:53 AM 61.0 °F - 50.0 °F 67% 29.80 in 10.0 mi NNW 5.8 mph - N/A   Clear
7:53 AM 68.0 °F - 52.0 °F 56% 29.80 in 10.0 mi North 12.7 mph - N/A   Clear
8:53 AM 66.9 °F - 57.0 °F 70% 29.83 in 10.0 mi North 17.3 mph 26.5 mph N/A   Clear
9:53 AM 69.1 °F - 57.0 °F 65% 29.85 in 10.0 mi NNW 15.0 mph 23.0 mph N/A   Clear
10:53 AM 71.1 °F - 57.0 °F 61% 29.86 in 10.0 mi North 13.8 mph 20.7 mph N/A   Clear
11:53 AM 73.9 °F - 57.0 °F 55% 29.86 in 10.0 mi North 9.2 mph 20.7 mph N/A   Clear
12:53 PM 75.9 °F - 55.9 °F 50% 29.86 in 10.0 mi NNW 12.7 mph - N/A   Clear
1:53 PM 77.0 °F - 55.9 °F 48% 29.86 in 10.0 mi North 12.7 mph 17.3 mph 0.00 in   Clear
2:53 PM 78.1 °F - 55.9 °F 46% 29.86 in 10.0 mi North 10.4 mph - N/A   Partly Cloudy
3:53 PM 79.0 °F - 53.1 °F 40% 29.85 in 10.0 mi North 9.2 mph - N/A   Clear
4:53 PM 79.0 °F - 54.0 °F 42% 29.84 in 10.0 mi NW 5.8 mph - N/A   Clear
5:53 PM 80.1 °F 80.1 °F 55.0 °F 42% 29.83 in 10.0 mi Variable 6.9 mph - N/A   Scattered Clouds
6:53 PM 77.0 °F - 55.0 °F 47% 29.84 in 10.0 mi NW 4.6 mph - N/A   Partly Cloudy
7:53 PM 72.0 °F - 55.0 °F 55% 29.83 in 10.0 mi West 11.5 mph - 0.00 in   Mostly Cloudy
8:53 PM 68.0 °F - 53.1 °F 59% 29.86 in 10.0 mi ENE 8.1 mph - N/A   Mostly Cloudy
9:53 PM 64.9 °F - 54.0 °F 68% 29.93 in 10.0 mi Calm Calm - N/A   Mostly Cloudy
10:53 PM 64.0 °F - 55.9 °F 75% 29.93 in 10.0 mi South 8.1 mph - N/A   Clear
11:53 PM 64.9 °F - 55.0 °F 70% 29.91 in 10.0 mi South 9.2 mph - N/A   Clear